This demonstration page uses our WeatherBlox Daily Observations layout. Learn more.

Left ArrowRight Arrow

Hourly Observations for October 4, 2022

Temp ( °F °C ) Dew Point ( °F °C ) Humidity (%) Winds ( mph kmh ) Pressure ( in mb ) Visibility ( mi km ) Precip ( " mm )
12:54 am 00:54 Clear 64 17.8 44 6.7 48 48 S 5 7 30.12 1020 10 16 0.00 0.00
1:54 am 01:54 Clear 60 15.6 44 6.7 55 55 S 5 7 30.11 1020 10 16 0.00 0.00
2:54 am 02:54 Clear 60 15.6 44 6.7 55 55 SSW 5 7 30.11 1020 10 16 0.00 0.00
3:54 am 03:54 Clear 58 14.4 44 6.7 60 60 S 5 7 30.10 1019 10 16 0.00 0.00
4:54 am 04:54 Clear 58 14.4 44 6.7 60 60 Calm 30.10 1019 10 16 0.00 0.00
6:54 am 06:54 Clear 55 12.8 44 6.7 66 66 Calm 30.11 1020 10 16 0.00 0.00
7:54 am 07:54 Sunny 53 11.7 45 7.2 74 74 SSE 5 7 30.11 1020 10 16 0.00 0.00
9:54 am 09:54 Sunny 66 18.9 48 8.9 52 52 S 6 9 30.11 1020 10 16 0.00 0.00
10:54 am 10:54 Sunny 72 22.2 47 8.3 41 41 S 10 17 30.09 1019 10 16 0.00 0.00
11:54 am 11:54 Sunny 80 26.7 45 7.2 29 29 SSW 9 15 30.07 1018 10 16 0.00 0.00
12:54 pm 12:54 Sunny 83 28.3 44 6.7 26 26 SSW 13 20 30.06 1018 10 16 0.00 0.00
1:54 pm 13:54 Sunny 83 28.3 43 6.1 24 24 SW 17 28 30.04 1017 10 16 0.00 0.00
2:54 pm 14:54 Sunny 81 27.2 43 6.1 26 26 SSW 14 22 30.02 1017 10 16 0.00 0.00
3:54 pm 15:54 Sunny 81 27.2 43 6.1 26 26 SW 14 22 30.02 1017 10 16 0.00 0.00
4:20 pm 16:20 Mostly Sunny 79 26.1 44 6.7 29 29 W 10 17 30.00 1016 10 16 0.00 0.00
4:54 pm 16:54 Cloudy 77 25 44 6.7 31 31 WNW 10 17 30.03 1017 10 16 0.00 0.00
5:54 pm 17:54 Cloudy 74 23.3 46 7.8 37 37 NNW 9 15 30.04 1017 10 16 0.00 0.00
6:54 pm 18:54 Cloudy with Light Rain 69 20.6 53 11.7 57 57 NW 8 13 30.06 1018 10 16 0.01 0.13
7:54 pm 19:54 Cloudy 66 18.9 55 12.8 68 68 WSW 5 7 30.06 1018 10 16 0.01 0.13
8:54 pm 20:54 Cloudy 65 18.3 55 12.8 70 70 SE 3 6 30.05 1018 10 16 0.01 0.13
9:54 pm 21:54 Partly Cloudy 65 18.3 54 12.2 68 68 W 3 6 30.05 1018 10 16 0.00 0.00
10:54 pm 22:54 Mostly Cloudy 67 19.4 53 11.7 61 61 Calm 30.05 1018 10 16 0.00 0.00
11:54 pm 23:54 Clear 56 13.3 51 10.6 84 84 NW 3 6 30.06 1018 10 16 0.00 0.00

Powered by AerisWeather